Regional Weather Roundup
Issued by NWS

Home | Current Version | Previous Version | Text Only | Print | Product List | Glossary On
Versions: 1 2 3 4 5 6 7 8 9 10 11 12 13 14 15 16 17 18 19 20 21 22 23 24 25 26 27 28 29 30 31 32 33 34 35 36 37 38 39 40 41 42 43 44 45 46 47 48 49 50
000
ASUS44 KFWD 160415
RWRTX
NORTH TEXAS HOURLY WEATHER ROUNDUP
NATIONAL WEATHER SERVICE FORT WORTH TX
1100 PM CDT MON SEP 15 2014

NOTE: "FAIR" INDICATES FEW OR NO CLOUDS BELOW 12,000 FEET WITH NO
SIGNIFICANT WEATHER AND/OR OBSTRUCTIONS TO VISIBILITY.

TXZ118-119-160500-
DALLAS/FORT WORTH METROPLEX

CITY           SKY/WX    TMP DP  RH WIND       PRES   REMARKS
DFW AIRPORT    CLOUDY    79  69  71 SE3       30.12R
DALLAS LOVE    CLOUDY    80  69  69 SE6       30.12R
FTW MEACHAM    MOCLDY    79  69  71 E3        30.12R
DAL-EXECUTIVE  CLOUDY    79  68  69 S3        30.12R
FTW-ALLIANCE   CLOUDY    77  68  73 CALM      30.12R
FTW-NAS-JRB    MOCLDY    83  68  60 SE5       30.17R
FTW-SPINKS     CLOUDY    77  68  74 CALM      30.15R
ARLINGTON      CLOUDY    78  68  71 CALM      30.13R
GRAND PRAIRIE  CLOUDY    79  67  67 CALM      30.14R
ADDISON        CLOUDY    81  67  63 E3        30.14S
MESQUITE       CLOUDY    77  69  77 CALM      30.12S
LANCASTER      CLOUDY    76  67  72 CALM      30.13R
$$

TXZ091>094-102>105-117-120-121-131>134-160500-
NORTH CENTRAL TEXAS

CITY           SKY/WX    TMP DP  RH WIND       PRES   REMARKS
SHRMAN/DENISON CLOUDY    75  70  83 E5        30.15R
GAINESVILLE    CLOUDY    75  70  85 CALM      30.16R
BOWIE          MOCLDY    74  69  83 CALM      30.15R
BRIDGEPORT     MOCLDY    75  67  75 CALM      30.15S
DECATUR        CLOUDY    75  66  75 E3        30.15R
DENTON         CLOUDY    77  68  73 NE3       30.12S
MCKINNEY       LGT RAIN  77  71  82 CALM      30.13R
GREENVILLE     CLOUDY    77  70  78 CALM      30.14R
ROCKWALL       CLOUDY    78  70  78 CALM      30.12R
TERRELL        CLOUDY    80  73  79 E3        30.12S
WAXAHACHIE     CLOUDY    76  66  71 CALM      30.14R
CLEBURNE       CLOUDY    77  70  78 S3        30.15R
GRANBURY       CLOUDY    78  70  75 N3        30.15R
$$

TXZ083>090-098>101-113>116-127>130-139>142-154-155-160500-
WESTERN NORTH TEXAS

CITY           SKY/WX    TMP DP  RH WIND       PRES   REMARKS
WICHITA FALLS  MOCLDY    76  69  79 SE3       30.13R
WF-KICKAPOO    MOCLDY    78  67  69 SE6       30.15R
VERNON         CLOUDY    79  67  66 SE7       30.15R
ABILENE        CLOUDY    76  66  71 SE8       30.17R
ABILENE-DYESS  MOCLDY    74  65  72 SE3       30.16R
BRECKENRIDGE   PTCLDY    77  65  64 SE6       30.15S
GRAHAM         MOCLDY    78  66  65 SE5       30.13S
MINERAL WELLS  MOCLDY    76  67  73 CALM      30.13R
STEPHENVILLE   CLOUDY    74  67  77 CALM      30.19R
COMANCHE         N/A     72  69  91 CALM      30.16S
BROWNWOOD      MOCLDY    73  68  83 CALM      30.16S
COLEMAN        MOCLDY    73  66  80 E5        30.17S
BRADY            N/A     73  66  78 E8        30.16R
$$

TXZ143>147-156>162-174-175-160500-
CENTRAL TEXAS

CITY           SKY/WX    TMP DP  RH WIND       PRES   REMARKS
WACO           CLOUDY    75  69  81 E5        30.12R
WACO-MCGREGOR  CLOUDY    77  64  65 E6        30.14R
HILLSBORO      CLOUDY    78  67  69 SE6       30.13S
CORSICANA      CLOUDY    77  71  82 SE5       30.13S
MEXIA          CLOUDY    73  71  92 CALM      30.12R
HEARNE           N/A     78  72  81 NE5       30.11R
CAMERON        CLOUDY    78  71  79 CALM      30.11S
TEMPLE         CLOUDY    75  64  69 E10       30.12S
KILLEEN        CLOUDY    79  68  69 NE6       30.14R
KILLEEN-SKYLRK CLOUDY    75  64  69 E6        30.13R
FORT HOOD      CLOUDY    79  68  69 NE3       30.14R
GATESVILLE     MIX PCPN  75  68  78 CALM      30.16R
HAMILTON       CLOUDY    74  68  80 CALM      30.17R
LAMPASAS       CLOUDY    76  71  85 CALM      30.14R
$$

TXZ095>097-106>112-122>126-135>138-148>153-164>167-160500-
EAST TEXAS

CITY           SKY/WX    TMP DP  RH WIND       PRES   REMARKS
PARIS          CLOUDY    73  66  78 E6        30.15R
SULPHUR SPRNGS CLOUDY    76  69  80 CALM      30.15S
MOUNT PLEASANT CLOUDY    74  69  83 CALM      30.15R
GILMER         CLOUDY    77  72  83 CALM      30.14S
MINEOLA        CLOUDY    75  72  88 CALM      30.14R
TYLER          CLOUDY    77  71  82 CALM      30.12S
LONGVIEW       MOCLDY    77  69  76 CALM      30.11S
MARSHALL       MOCLDY    78  73  82 CALM      30.14S
ATHENS         CLOUDY    75  70  83 CALM      30.11S
PALESTINE      CLOUDY    77  72  85 E3        30.12S
JACKSONVILLE   CLOUDY    77  71  82 CALM      30.15R
HENDERSON      CLOUDY    73  72  98 CALM      30.13S
NACOGDOCHES    CLOUDY    75  72  88 E6        30.12R
LUFKIN         MOCLDY    80  73  79 NE5       30.10S
$$

SUPPLEMENTAL OBSERVATIONS (CENTRAL)

CITY           SKY/WX    TMP DP  RH WIND       PRES   REMARKS
LAKE TEXOMA      N/A     75  70  83 E2          N/A
PAT MAYSE LAKE   N/A     73  68  83 NE3         N/A
GREENVILLE       N/A     75  66  73 E5          N/A
CEDAR HILL       N/A     77  68  73 SE1         N/A
PALESTINE        N/A     73  70  88 CALM        N/A
LAKE LIMESTONE   N/A     75  72  88 E6          N/A
MCGREGOR         N/A     75  68  78 E5          N/A
TEMPLE           N/A     77  70  78 NE7         N/A
$$

SUPPLEMENTAL OBSERVATIONS (WEST)

CITY           SKY/WX    TMP DP  RH WIND       PRES   REMARKS
MILLERS CREEK    N/A     75  66  73 S2          N/A
POSSUM KINGDOM   N/A     79  66  65 S3          N/A
GRANBURY         N/A     77  70  78 VRB3        N/A
COMANCHE         N/A     72  66  83 SE5         N/A
HAMBY            N/A     75  64  69 SE5         N/A
IVIE RESERVOIR   N/A     73  66  78 E6          N/A
COLORADO BEND    N/A     75  66  73 E6          N/A
$$

SUPPLEMENTAL OBSERVATIONS (EAST)

CITY           SKY/WX    TMP DP  RH WIND       PRES   REMARKS
TEXARKANA        N/A     72  68  88 CALM        N/A
LINDEN           N/A     73  70  88 E1          N/A
CADDO LAKE       N/A     72  70  94 CALM        N/A
GILMER           N/A     75  70  83 CALM        N/A
HENDERSON        N/A     73  70  88 CALM        N/A
LUFKIN           N/A     77  72  83 MISG        N/A
N SABINE NF      N/A     73  70  88 MISG        N/A
$$

SUPPLEMENTAL OBSERVATIONS ARE A COLLECTION OF AUTOMATED INSTRUMENTS
THAT ARE MAINTAINED BY A VARIETY OF FEDERAL AND STATE AGENCIES.
CERTAIN ELEMENTS...SUCH AS HUMIDITY VALUES AND SUSTAINED WIND
SPEEDS...MAY BE APPROXIMATED.




USA.gov is the U.S. government's official web portal to all federal, state and local government web resources and services.